ARCTICSAT 1 (RS74S)

Last updated on Sun Apr 12 2026 00:03:15 GMT+0000 (Coordinated Universal Time)

1 61762U 24199AD 26101.52759536 .00125914 00000+0 86704-3 0 9998 2 61762 97.3007 341.2777 0007031 129.5992 230.5894 15.74220339127545
UTC large
Height (km)
Speed (km/s)
/
Latitude / Longitude
Inclination (degrees)
Orbital Period (minutes)
Azimuth
Elevation
Range (km)
Doppler Factor

Next 0 passes for location: London (51.5072 / 0.1276)

No passes found over London.
ARCTICSAT 1 (RS74S)